KC6RZW-10 Weather Reports


Display with metric or nautical units.
time (UTC)temp
F
wind
direction
speed
MPH
gust
MPH
rain 1hr
in
rain 24hr
in
rain mn
in
humidity
%
barometer
mb
20210621131209 66 225 0.0 0.0 0.00 0.00 0.00 64 1005.7
20210621130626 66 225 0.0 0.0 0.00 0.00 0.00 63 1005.8
20210621130126 66 225 0.0 0.0 0.00 0.00 0.00 63 1005.8
20210621125626 66 225 0.0 0.0 0.00 0.00 0.00 63 1005.4
20210621125211 66 203 0.0 0.0 0.00 0.00 0.00 63 1005.4
20210621124624 66 203 0.0 0.0 0.00 0.00 0.00 63 1005.4
20210621124123 66 225 0.0 0.0 0.00 0.00 0.00 63 1005.3
20210621123643 66 225 0.0 0.0 0.00 0.00 0.00 62 1005.3
20210621123122 67 225 0.0 0.0 0.00 0.00 0.00 62 1005.3
20210621122629 67 203 0.0 0.0 0.00 0.00 0.00 62 1005.3
20210621122124 67 225 0.0 0.0 0.00 0.00 0.00 62 1005.2
20210621121147 67 225 0.0 0.0 0.00 0.00 0.00 62 1005.2
20210621120625 68 203 0.0 0.0 0.00 0.00 0.00 62 1004.9
20210621120128 68 203 0.0 0.0 0.00 0.00 0.00 62 1004.9
20210621115145 68 203 0.0 0.0 0.00 0.00 0.00 62 1005.0
20210621114624 68 203 0.0 0.0 0.00 0.00 0.00 62 1005.0
20210621114127 68 225 0.0 0.0 0.00 0.00 0.00 62 1004.8
20210621113645 68 225 0.0 0.0 0.00 0.00 0.00 62 1004.8
20210621113148 68 225 0.0 0.0 0.00 0.00 0.00 62 1004.8
20210621112625 68 203 0.0 0.0 0.00 0.00 0.00 61 1004.8
20210621112126 68 225 0.0 0.0 0.00 0.00 0.00 60 1004.7
20210621111628 68 180 0.0 0.0 0.00 0.00 0.00 60 1004.7
20210621111146 68 225 0.0 0.0 0.00 0.00 0.00 60 1004.7
20210621110623 68 180 0.0 0.0 0.00 0.00 0.00 60 1004.7
20210621110122 68 203 0.0 0.0 0.00 0.00 0.00 60 1004.7
20210621105626 68 203 0.0 0.0 0.00 0.00 0.00 59 1004.7
20210621105126 69 203 0.0 0.0 0.00 0.00 0.00 59 1004.7
20210621104623 69 225 0.0 0.0 0.00 0.00 0.00 59 1004.7
20210621104123 69 270 0.0 0.0 0.00 0.00 0.00 59 1004.7
20210621103623 69 203 0.0 0.0 0.00 0.00 0.00 59 1004.7
20210621103128 69 203 0.0 0.0 0.00 0.00 0.00 59 1004.5
20210621102644 69 180 0.0 0.0 0.00 0.00 0.00 58 1004.5
20210621102125 70 203 0.0 0.0 0.00 0.00 0.00 57 1004.6
20210621101622 70 203 0.0 0.0 0.00 0.00 0.00 57 1004.6
20210621101147 70 203 0.0 0.0 0.00 0.00 0.00 57 1004.6
20210621100803 70 225 0.0 0.0 0.00 0.00 0.00 56 1004.5
20210621100122 70 180 0.0 0.0 0.00 0.00 0.00 56 1004.5
20210621095622 71 203 0.0 0.0 0.00 0.00 0.00 56 1004.6
20210621095123 71 225 0.0 0.0 0.00 0.00 0.00 56 1004.6
20210621094645 71 203 0.0 0.0 0.00 0.00 0.00 55 1004.6
20210621094300 71 203 0.0 0.0 0.00 0.00 0.00 55 1004.5
20210621093644 72 225 0.0 0.0 0.00 0.00 0.00 54 1004.5
20210621093144 72 203 0.0 0.0 0.00 0.00 0.00 54 1004.5
20210621092642 72 203 0.0 0.0 0.00 0.00 0.00 54 1004.5
20210621092144 72 225 0.0 0.0 0.00 0.00 0.00 54 1004.5
20210621091622 72 203 0.0 0.0 0.00 0.00 0.00 54 1004.5
20210621091300 73 270 0.0 0.0 0.00 0.00 0.00 54 1004.5
20210621090622 73 180 0.0 0.0 0.00 0.00 0.00 53 1004.5
20210621090123 73 203 0.0 0.0 0.00 0.00 0.00 52 1004.5
20210621085642 73 180 0.0 0.0 0.00 0.00 0.00 52 1004.5
20210621085123 73 225 0.0 0.0 0.00 0.00 0.00 52 1004.5
20210621084644 74 225 0.0 0.0 0.00 0.00 0.00 52 1004.5
20210621084123 74 203 0.0 0.0 0.00 0.00 0.00 52 1004.4
20210621083625 74 225 0.0 0.0 0.00 0.00 0.00 52 1004.4
20210621083125 74 270 0.0 0.0 0.00 0.00 0.00 52 1004.3
20210621082623 74 203 0.0 0.0 0.00 0.00 0.00 51 1004.3
20210621082208 75 225 0.0 0.0 0.00 0.00 0.00 51 1004.4
20210621081644 75 180 0.0 0.0 0.00 0.00 0.00 51 1004.4
20210621081145 75 180 0.0 0.0 0.00 0.00 0.00 51 1004.4
20210621080623 75 23 0.0 0.0 0.00 0.00 0.00 51 1004.4
20210621080123 75 203 0.0 0.0 0.00 0.00 0.00 51 1004.4
20210621075704 75 225 0.0 0.0 0.00 0.00 0.00 51 1004.5
20210621075205 75 203 0.0 0.0 0.00 0.00 0.00 51 1004.5
20210621074707 75 225 0.0 0.0 0.00 0.00 0.00 51 1004.5
20210621074125 75 180 0.0 0.0 0.00 0.00 0.00 50 1004.5
20210621073646 76 225 0.0 0.0 0.00 0.00 0.00 50 1004.5
20210621073145 76 113 0.0 0.0 0.00 0.00 0.00 50 1004.2
20210621072624 76 180 0.0 0.0 0.00 0.00 0.00 50 1004.2
20210621072127 76 225 0.0 0.0 0.00 0.00 0.00 49 1004.5
20210621071624 76 203 0.0 0.0 0.00 0.00 0.00 49 1004.5
20210621071143 77 248 0.0 0.0 0.00 0.00 0.00 49 1004.5
20210621070624 77 186 0.0 2.0 0.00 0.00 0.00 49 1004.4
20210621070144 77 186 0.0 2.0 0.00 0.00 0.00 48 1004.4
20210621065625 77 203 0.0 0.0 0.00 0.00 0.23 48 1004.5
20210621065125 77 225 0.0 0.0 0.00 0.00 0.23 48 1004.5
20210621064645 77 175 0.0 2.0 0.00 0.00 0.23 48 1004.5
20210621064124 78 186 0.0 2.0 0.00 0.00 0.23 48 1004.5
20210621063624 78 202 0.0 2.0 0.00 0.00 0.23 48 1004.5
20210621063124 78 180 0.0 0.0 0.00 0.00 0.23 47 1004.5
20210621062644 78 180 0.0 0.0 0.00 0.00 0.23 47 1004.5
20210621062147 78 203 0.0 0.0 0.00 0.00 0.23 47 1004.6
20210621061644 79 203 0.0 0.0 0.00 0.00 0.23 47 1004.6
20210621061127 79 202 0.0 3.0 0.00 0.00 0.23 47 1004.6
20210621060708 79 202 0.0 3.0 0.00 0.00 0.23 47 1004.4
20210621060124 79 270 0.0 1.0 0.00 0.00 0.23 46 1004.4
20210621055624 79 270 0.0 1.0 0.00 0.00 0.23 46 1004.4
20210621055124 80 180 0.0 0.0 0.00 0.00 0.23 45 1004.4
20210621054624 80 202 0.0 3.0 0.00 0.00 0.23 45 1004.4
20210621054124 80 202 0.0 3.0 0.00 0.00 0.23 45 1004.5
20210621053624 80 270 0.0 0.0 0.00 0.00 0.23 45 1004.5
20210621053145 81 203 0.0 0.0 0.00 0.00 0.23 45 1004.6
20210621052627 81 293 0.0 0.0 0.00 0.00 0.23 45 1004.6
20210621052125 81 203 0.0 0.0 0.00 0.00 0.23 44 1004.6
20210621051643 81 203 0.0 0.0 0.00 0.00 0.23 44 1004.6
20210621051124 82 293 0.0 0.0 0.00 0.00 0.23 43 1004.6
20210621050624 82 225 0.0 1.0 0.00 0.00 0.23 43 1004.4
20210621050146 82 225 0.0 1.0 0.00 0.00 0.23 43 1004.4
20210621045825 82 248 0.0 0.0 0.00 0.00 0.23 43 1004.3
20210621045127 83 270 0.0 0.0 0.00 0.00 0.23 43 1004.3
20210621044624 83 270 0.0 0.0 0.00 0.00 0.23 42 1004.3
20210621044124 83 293 0.0 0.0 0.00 0.00 0.23 42 1004.1
20210621043624 84 338 0.0 0.0 0.00 0.00 0.23 41 1004.1
20210621043127 84 158 0.0 0.0 0.00 0.00 0.23 41 1004.0
20210621042627 84 225 0.0 0.0 0.00 0.00 0.23 41 1004.0
20210621042125 84 180 0.0 0.0 0.00 0.00 0.23 40 1003.8
20210621041645 85 270 0.0 2.0 0.00 0.00 0.23 40 1003.8
20210621041145 85 257 0.0 2.0 0.00 0.00 0.23 40 1003.8
20210621040647 86 247 0.0 2.0 0.00 0.00 0.23 38 1003.9
20210621040207 86 335 0.0 4.0 0.00 0.00 0.23 37 1003.9
20210621035644 86 335 0.0 4.0 0.00 0.00 0.23 38 1003.7
20210621035148 87 337 0.0 4.0 0.00 0.00 0.23 36 1003.7
20210621034705 87 337 0.0 4.0 0.00 0.00 0.23 36 1003.7
20210621034124 88 158 0.0 0.0 0.00 0.00 0.23 34 1003.8
20210621033624 88 225 0.0 0.0 0.00 0.00 0.23 33 1003.8
20210621033124 89 203 0.0 0.0 0.00 0.00 0.23 32 1003.7
20210621032643 89 203 0.0 0.0 0.00 0.00 0.23 33 1003.7
20210621032147 90 202 0.0 2.0 0.00 0.00 0.23 31 1003.5
20210621031624 90 234 0.0 2.0 0.00 0.00 0.23 31 1003.5
20210621031124 91 304 0.0 5.0 0.00 0.00 0.23 29 1003.5
20210621030624 91 295 0.0 5.0 0.00 0.00 0.23 29 1003.5
20210621030124 91 270 0.0 3.0 0.00 0.00 0.23 23 1003.5
20210621025645 91 270 0.0 0.0 0.00 0.00 0.23 22 1003.4
20210621025127 92 318 0.0 4.0 0.00 0.00 0.23 22 1003.4
20210621024713 92 318 0.0 4.0 0.00 0.00 0.23 22 1003.4
20210621024148 92 332 1.0 4.0 0.00 0.00 0.23 22 1003.5
20210621023646 92 321 2.0 7.0 0.00 0.00 0.23 22 1003.5
20210621023123 93 338 2.0 7.0 0.00 0.00 0.23 22 1003.4
20210621022627 93 359 2.0 7.0 0.00 0.00 0.23 22 1003.4
20210621022146 93 346 2.0 5.0 0.00 0.00 0.23 22 1003.5
20210621021624 93 336 4.0 8.0 0.00 0.00 0.23 21 1003.5
20210621021146 93 345 3.0 8.0 0.00 0.00 0.23 21 1003.5
20210621020645 94 341 2.0 7.0 0.00 0.00 0.23 21 1003.4
20210621020148 94 303 1.0 7.0 0.00 0.00 0.23 21 1003.4
20210621015624 95 21 0.0 3.0 0.00 0.00 0.23 21 1003.3
20210621015124 95 340 3.0 15.0 0.00 0.00 0.23 20 1003.3
20210621014624 95 332 4.0 15.0 0.00 0.00 0.23 20 1003.3
20210621014127 97 333 2.0 7.0 0.00 0.00 0.23 19 1003.4
20210621013707 97 317 2.0 6.0 0.00 0.00 0.23 19 1003.4
20210621013147 98 322 2.0 6.0 0.00 0.00 0.23 19 1003.6
20210621012624 98 358 1.0 6.0 0.00 0.00 0.23 20 1003.6
20210621012145 98 324 1.0 6.0 0.00 0.00 0.23 20 1003.6
20210621011627 98 10 2.0 6.0 0.00 0.00 0.23 20 1003.6
20210621011130 98 330 3.0 6.0 0.00 0.00 0.23 20 1003.6
20210621010627 98 321 4.0 9.0 0.00 0.00 0.23 20 1003.7
20210621010127 98 331 5.0 11.0 0.00 0.00 0.23 20 1003.7
20210621005627 98 329 5.0 11.0 0.00 0.00 0.23 20 1003.7
20210621005146 98 333 4.0 9.0 0.00 0.00 0.23 20 1003.7
20210621004623 98 328 4.0 9.0 0.00 0.00 0.23 20 1003.7
20210621004124 98 323 3.0 8.0 0.00 0.00 0.23 20 1003.8
20210621003645 98 331 4.0 9.0 0.00 0.00 0.23 20 1003.8
20210621003127 98 353 5.0 9.0 0.00 0.00 0.23 20 1003.7
20210621002627 98 345 5.0 14.0 0.00 0.00 0.23 20 1003.7
20210621002127 98 337 4.0 14.0 0.00 0.00 0.23 20 1003.6
20210621001624 98 5 4.0 10.0 0.00 0.00 0.23 20 1003.6
20210621001148 98 3 4.0 10.0 0.00 0.00 0.23 21 1003.6
20210621000627 98 357 4.0 8.0 0.00 0.00 0.23 21 1003.8
20210621000125 98 9 6.0 13.0 0.00 0.00 0.23 20 1003.8
20210620235644 98 352 7.0 13.0 0.00 0.00 0.23 20 1003.8
20210620235123 98 353 6.0 9.0 0.00 0.00 0.23 21 1003.8
20210620234624 98 8 6.0 10.0 0.00 0.00 0.23 21 1003.8
20210620234127 98 1 5.0 10.0 0.00 0.00 0.23 21 1004.0
20210620233624 98 349 5.0 9.0 0.00 0.00 0.23 21 1004.0
20210620233205 99 5 5.0 10.0 0.00 0.00 0.23 21 1004.1
20210620232644 99 352 6.0 10.0 0.00 0.00 0.23 21 1004.1
20210620232126 100 337 3.0 9.0 0.00 0.00 0.23 22 1004.2
20210620231630 100 353 2.0 10.0 0.00 0.00 0.23 23 1004.2
20210620231124 99 339 3.0 10.0 0.00 0.00 0.23 24 1004.2
20210620230643 100 337 2.0 10.0 0.00 0.00 0.23 23 1004.3
20210620230124 99 279 1.0 8.0 0.00 0.00 0.23 26 1004.3
20210620225707 98 327 2.0 8.0 0.00 0.00 0.23 28 1004.4
20210620225123 98 341 1.0 8.0 0.00 0.00 0.23 27 1004.4
20210620224642 97 289 1.0 7.0 0.00 0.00 0.23 29 1004.4
20210620224124 97 295 1.0 7.0 0.00 0.00 0.23 29 1004.6
20210620223627 95 306 1.0 8.0 0.00 0.00 0.23 32 1004.6
20210620223148 95 329 3.0 9.0 0.00 0.00 0.23 32 1004.8
20210620222645 94 344 2.0 9.0 0.00 0.00 0.23 31 1004.8
20210620222124 93 345 2.0 8.0 0.00 0.00 0.23 32 1004.9
20210620221624 92 340 2.0 8.0 0.00 0.00 0.23 33 1004.9
20210620221150 92 303 1.0 8.0 0.00 0.00 0.23 33 1004.9
20210620220624 92 122 1.0 7.0 0.00 0.00 0.23 35 1005.0
20210620220204 91 327 2.0 6.0 0.00 0.00 0.23 36 1005.0
20210620215123 90 336 2.0 11.0 0.00 0.00 0.23 37 1005.2
20210620214643 89 327 2.0 11.0 0.00 0.00 0.23 36 1005.2
20210620214123 89 305 0.0 4.0 0.00 0.00 0.23 38 1005.3
20210620213623 89 360 1.0 7.0 0.00 0.00 0.23 39 1005.3
20210620213123 89 7 1.0 7.0 0.00 0.00 0.23 38 1005.6
20210620212704 88 360 0.0 1.0 0.00 0.00 0.23 40 1005.6
20210620212144 88 325 2.0 10.0 0.00 0.00 0.23 40 1005.6
20210620211623 87 319 2.0 10.0 0.00 0.00 0.23 40 1005.6
20210620211123 87 338 1.0 7.0 0.00 0.00 0.23 42 1005.6
20210620210647 87 344 2.0 8.0 0.00 0.00 0.23 41 1005.8
20210620210206 86 334 2.0 8.0 0.23 0.00 0.23 41 1005.8
20210620205644 86 327 2.0 6.0 0.23 0.00 0.23 41 1005.7
20210620205145 86 334 1.0 6.0 0.23 0.00 0.23 42 1005.7
20210620204623 86 6 0.0 5.0 0.23 0.00 0.23 42 1005.7
20210620204144 86 225 0.0 0.0 0.23 0.00 0.23 43 1006.1
20210620203623 86 113 0.0 0.0 0.23 0.00 0.23 43 1006.1
20210620203123 85 23 0.0 0.0 0.23 0.00 0.23 43 1006.3
20210620202623 85 202 0.0 1.0 0.23 0.00 0.23 43 1006.3
20210620202126 85 322 0.0 6.0 0.23 0.00 0.23 43 1006.5
20210620201623 85 327 0.0 6.0 0.23 0.00 0.23 43 1006.5
20210620201206 85 315 0.0 0.0 0.23 0.00 0.23 43 1006.5
20210620200735 85 23 0.0 0.0 0.23 0.00 0.23 43 1006.6
20210620200645 85 293 0.0 0.0 0.23 0.00 0.23 42 1006.6